Year,Month,Day,Hour,Minute,Value (Times are PST for temperature in C)
2019,04,24,00,00,6.20
2019,04,24,00,01,6.20
2019,04,24,00,02,6.20
2019,04,24,00,03,6.20
2019,04,24,00,04,6.10
2019,04,24,00,05,6.10
2019,04,24,00,06,6.10
2019,04,24,00,07,6.10
2019,04,24,00,08,6.10
2019,04,24,00,09,6.10
2019,04,24,00,10,6.10
2019,04,24,00,11,6.10
2019,04,24,00,12,6.00
2019,04,24,00,13,6.00
2019,04,24,00,14,6.00
2019,04,24,00,15,6.00
2019,04,24,00,16,5.90
2019,04,24,00,17,5.90
2019,04,24,00,18,5.90
2019,04,24,00,19,5.90
2019,04,24,00,20,5.90
2019,04,24,00,21,5.90
2019,04,24,00,22,5.90
2019,04,24,00,23,5.90
2019,04,24,00,24,5.90
2019,04,24,00,25,5.90
2019,04,24,00,26,5.90
2019,04,24,00,27,5.90
2019,04,24,00,28,5.90
2019,04,24,00,29,5.90
2019,04,24,00,30,5.90
2019,04,24,00,31,5.80
2019,04,24,00,32,5.80
2019,04,24,00,33,5.80
2019,04,24,00,34,5.80
2019,04,24,00,35,5.80
2019,04,24,00,36,5.70
2019,04,24,00,37,5.70
2019,04,24,00,38,5.70
2019,04,24,00,39,5.70
2019,04,24,00,40,5.70
2019,04,24,00,41,5.70
2019,04,24,00,42,5.70
2019,04,24,00,43,5.70
2019,04,24,00,44,5.70
2019,04,24,00,45,5.70
2019,04,24,00,46,5.70
2019,04,24,00,47,5.70
2019,04,24,00,48,5.70
2019,04,24,00,49,5.70
2019,04,24,00,50,5.70
2019,04,24,00,51,5.70
2019,04,24,00,52,5.70
2019,04,24,00,53,5.70
2019,04,24,00,54,5.80
2019,04,24,00,55,5.80
2019,04,24,00,56,5.80
2019,04,24,00,57,5.80
2019,04,24,00,58,5.80
2019,04,24,00,59,5.80
2019,04,24,01,00,5.80
2019,04,24,01,01,5.80
2019,04,24,01,02,5.80
2019,04,24,01,03,5.80
2019,04,24,01,04,5.80
2019,04,24,01,05,5.70
2019,04,24,01,06,5.70
2019,04,24,01,07,5.70
2019,04,24,01,08,5.70
2019,04,24,01,09,5.70
2019,04,24,01,10,5.70
2019,04,24,01,11,5.70
2019,04,24,01,12,5.70
2019,04,24,01,13,5.70
2019,04,24,01,14,5.70
2019,04,24,01,15,5.70
2019,04,24,01,16,5.70
2019,04,24,01,17,5.60
2019,04,24,01,18,5.60
2019,04,24,01,19,5.60
2019,04,24,01,20,5.60
2019,04,24,01,21,5.70
2019,04,24,01,22,5.70
2019,04,24,01,23,5.60
2019,04,24,01,24,5.60
2019,04,24,01,25,5.60
2019,04,24,01,26,5.60
2019,04,24,01,27,5.70
2019,04,24,01,28,5.70
2019,04,24,01,29,5.70
2019,04,24,01,30,5.70
2019,04,24,01,31,5.70
2019,04,24,01,32,5.80
2019,04,24,01,33,5.80
2019,04,24,01,34,5.80
2019,04,24,01,35,5.80
2019,04,24,01,36,5.80
2019,04,24,01,37,5.80
2019,04,24,01,38,5.90
2019,04,24,01,39,5.90
2019,04,24,01,40,6.00
2019,04,24,01,41,6.00
2019,04,24,01,42,6.10
2019,04,24,01,43,6.20
2019,04,24,01,44,6.20
2019,04,24,01,45,6.20
2019,04,24,01,46,6.30
2019,04,24,01,47,6.30
2019,04,24,01,48,6.30
2019,04,24,01,49,6.30
2019,04,24,01,50,6.30
2019,04,24,01,51,6.30
2019,04,24,01,52,6.30
2019,04,24,01,53,6.40
2019,04,24,01,54,6.40
2019,04,24,01,55,6.40
2019,04,24,01,56,6.40
2019,04,24,01,57,6.40
2019,04,24,01,58,6.50
2019,04,24,01,59,6.50
2019,04,24,02,00,6.60
2019,04,24,02,01,6.70
2019,04,24,02,02,6.70
2019,04,24,02,03,6.80
2019,04,24,02,04,6.80
2019,04,24,02,05,6.80
2019,04,24,02,06,6.80
2019,04,24,02,07,6.80
2019,04,24,02,08,6.80
2019,04,24,02,09,6.80
2019,04,24,02,10,6.80
2019,04,24,02,11,6.80
2019,04,24,02,12,6.80
2019,04,24,02,13,6.90
2019,04,24,02,14,6.90
2019,04,24,02,15,7.00
2019,04,24,02,16,7.10
2019,04,24,02,17,7.10
2019,04,24,02,18,7.20
2019,04,24,02,19,7.20
2019,04,24,02,20,7.20
2019,04,24,02,21,7.20
2019,04,24,02,22,7.20
2019,04,24,02,23,7.20
2019,04,24,02,24,7.30
2019,04,24,02,25,7.20
2019,04,24,02,26,7.20
2019,04,24,02,27,7.30
2019,04,24,02,28,7.20
2019,04,24,02,29,7.30
2019,04,24,02,30,7.20
2019,04,24,02,31,7.20
2019,04,24,02,32,7.20
2019,04,24,02,33,7.20
2019,04,24,02,34,7.20
2019,04,24,02,35,7.20
2019,04,24,02,36,7.20
2019,04,24,02,37,7.10
2019,04,24,02,38,7.10
2019,04,24,02,39,7.10
2019,04,24,02,40,7.10
2019,04,24,02,41,7.10
2019,04,24,02,42,7.10
2019,04,24,02,43,7.10
2019,04,24,02,44,7.10
2019,04,24,02,45,7.00
2019,04,24,02,46,7.00
2019,04,24,02,47,7.00
2019,04,24,02,48,6.90
2019,04,24,02,49,6.90
2019,04,24,02,50,6.90
2019,04,24,02,51,6.90
2019,04,24,02,52,6.90
2019,04,24,02,53,6.90
2019,04,24,02,54,6.90
2019,04,24,02,55,6.90
2019,04,24,02,56,6.90
2019,04,24,02,57,6.90
2019,04,24,02,58,6.90
2019,04,24,02,59,6.90
2019,04,24,03,00,6.80
2019,04,24,03,01,6.80
2019,04,24,03,02,6.80
2019,04,24,03,03,6.80
2019,04,24,03,04,6.80
2019,04,24,03,05,6.80
2019,04,24,03,06,6.80
2019,04,24,03,07,6.70
2019,04,24,03,08,6.70
2019,04,24,03,09,6.70
2019,04,24,03,10,6.70
2019,04,24,03,11,6.70
2019,04,24,03,12,6.80
2019,04,24,03,13,6.80
2019,04,24,03,14,6.80
2019,04,24,03,15,6.80
2019,04,24,03,16,6.80
2019,04,24,03,17,6.80
2019,04,24,03,18,6.80
2019,04,24,03,19,6.80
2019,04,24,03,20,6.80
2019,04,24,03,21,6.80
2019,04,24,03,22,6.80
2019,04,24,03,23,6.80
2019,04,24,03,24,6.70
2019,04,24,03,25,6.70
2019,04,24,03,26,6.70
2019,04,24,03,27,6.70
2019,04,24,03,28,6.70
2019,04,24,03,29,6.60
2019,04,24,03,30,6.60
2019,04,24,03,31,6.60
2019,04,24,03,32,6.60
2019,04,24,03,33,6.50
2019,04,24,03,34,6.50
2019,04,24,03,35,6.40
2019,04,24,03,36,6.40
2019,04,24,03,37,6.40
2019,04,24,03,38,6.40
2019,04,24,03,39,6.40
2019,04,24,03,40,6.40
2019,04,24,03,41,6.50
2019,04,24,03,42,6.50
2019,04,24,03,43,6.50
2019,04,24,03,44,6.50
2019,04,24,03,45,6.40
2019,04,24,03,46,6.40
2019,04,24,03,47,6.40
2019,04,24,03,48,6.40
2019,04,24,03,49,6.40
2019,04,24,03,50,6.30
2019,04,24,03,51,6.30
2019,04,24,03,52,6.30
2019,04,24,03,53,6.30
2019,04,24,03,54,6.20
2019,04,24,03,55,6.20
2019,04,24,03,56,6.20
2019,04,24,03,57,6.20
2019,04,24,03,58,6.20
2019,04,24,03,59,6.10
2019,04,24,04,00,6.10
2019,04,24,04,01,6.10
2019,04,24,04,02,6.10
2019,04,24,04,03,6.10
2019,04,24,04,04,6.10
2019,04,24,04,05,6.00
2019,04,24,04,06,6.00
2019,04,24,04,07,6.00
2019,04,24,04,08,6.00
2019,04,24,04,09,6.00
2019,04,24,04,10,6.00
2019,04,24,04,11,6.00
2019,04,24,04,12,6.00
2019,04,24,04,13,6.00
2019,04,24,04,14,6.00
2019,04,24,04,15,6.00
2019,04,24,04,16,5.90
2019,04,24,04,17,5.90
2019,04,24,04,18,5.90
2019,04,24,04,19,5.90
2019,04,24,04,20,5.80
2019,04,24,04,21,5.80
2019,04,24,04,22,5.80
2019,04,24,04,23,5.70
2019,04,24,04,24,5.80
2019,04,24,04,25,5.80
2019,04,24,04,26,5.80
2019,04,24,04,27,5.70
2019,04,24,04,28,5.70
2019,04,24,04,29,5.70
2019,04,24,04,30,5.70
2019,04,24,04,31,5.70
2019,04,24,04,32,5.70
2019,04,24,04,33,5.70
2019,04,24,04,34,5.60
2019,04,24,04,35,5.60
2019,04,24,04,36,5.60
2019,04,24,04,37,5.60
2019,04,24,04,38,5.60
2019,04,24,04,39,5.60
2019,04,24,04,40,5.50
2019,04,24,04,41,5.50
2019,04,24,04,42,5.50
2019,04,24,04,43,5.40
2019,04,24,04,44,5.50
2019,04,24,04,45,5.50
2019,04,24,04,46,5.50
2019,04,24,04,47,5.50
2019,04,24,04,48,5.50
2019,04,24,04,49,5.50
2019,04,24,04,50,5.50
2019,04,24,04,51,5.40
2019,04,24,04,52,5.40
2019,04,24,04,53,5.40
2019,04,24,04,54,5.50
2019,04,24,04,55,5.50
2019,04,24,04,56,5.40
2019,04,24,04,57,5.40
2019,04,24,04,58,5.50
2019,04,24,04,59,5.50
2019,04,24,05,00,5.50
2019,04,24,05,01,5.60
2019,04,24,05,02,5.60
2019,04,24,05,03,5.60
2019,04,24,05,04,5.60
2019,04,24,05,05,5.50
2019,04,24,05,06,5.50
2019,04,24,05,07,5.50
2019,04,24,05,08,5.40
2019,04,24,05,09,5.40
2019,04,24,05,10,5.40
2019,04,24,05,11,5.40
2019,04,24,05,12,5.40
2019,04,24,05,13,5.40
2019,04,24,05,14,5.40
2019,04,24,05,15,5.40
2019,04,24,05,16,5.30
2019,04,24,05,17,5.30
2019,04,24,05,18,5.30
2019,04,24,05,19,5.30
2019,04,24,05,20,5.20
2019,04,24,05,21,5.20
2019,04,24,05,22,5.20
2019,04,24,05,23,5.10
2019,04,24,05,24,5.10
2019,04,24,05,25,5.10
2019,04,24,05,26,5.10
2019,04,24,05,27,5.10
2019,04,24,05,28,5.10
2019,04,24,05,29,5.10
2019,04,24,05,30,5.10
2019,04,24,05,31,5.10
2019,04,24,05,32,5.10
2019,04,24,05,33,5.10
2019,04,24,05,34,5.00
2019,04,24,05,35,5.00
2019,04,24,05,36,5.00
2019,04,24,05,37,4.90
2019,04,24,05,38,5.00
2019,04,24,05,39,4.90
2019,04,24,05,40,4.90
2019,04,24,05,41,4.90
2019,04,24,05,42,4.80
2019,04,24,05,43,4.80
2019,04,24,05,44,4.80
2019,04,24,05,45,4.80
2019,04,24,05,46,4.80
2019,04,24,05,47,4.80
2019,04,24,05,48,4.80
2019,04,24,05,49,4.80
2019,04,24,05,50,4.80
2019,04,24,05,51,4.80
2019,04,24,05,52,4.70
2019,04,24,05,53,4.70
2019,04,24,05,54,4.70
2019,04,24,05,55,4.70
2019,04,24,05,56,4.70
2019,04,24,05,57,4.70
2019,04,24,05,58,4.70
2019,04,24,05,59,4.70
2019,04,24,06,00,4.60
2019,04,24,06,01,4.60
2019,04,24,06,02,4.60
2019,04,24,06,03,4.60
2019,04,24,06,04,4.50
2019,04,24,06,05,4.50
2019,04,24,06,06,4.50
2019,04,24,06,07,4.50
2019,04,24,06,08,4.40
2019,04,24,06,09,4.40
2019,04,24,06,10,4.40
2019,04,24,06,11,4.30
2019,04,24,06,12,4.30
2019,04,24,06,13,4.30
2019,04,24,06,14,4.30
2019,04,24,06,15,4.20
2019,04,24,06,16,4.20
2019,04,24,06,17,4.20
2019,04,24,06,18,4.20
2019,04,24,06,19,4.10
2019,04,24,06,20,4.10
2019,04,24,06,21,4.10
2019,04,24,06,22,4.10
2019,04,24,06,23,4.10
2019,04,24,06,24,4.10
2019,04,24,06,25,4.10
2019,04,24,06,26,4.00
2019,04,24,06,27,4.00
2019,04,24,06,28,4.10
2019,04,24,06,29,4.10
2019,04,24,06,30,4.10
2019,04,24,06,31,4.10
2019,04,24,06,32,4.10
2019,04,24,06,33,4.10
2019,04,24,06,34,4.10
2019,04,24,06,35,4.20
2019,04,24,06,36,4.20
2019,04,24,06,37,4.30
2019,04,24,06,38,4.20
2019,04,24,06,39,4.20
2019,04,24,06,40,4.20
2019,04,24,06,41,4.20
2019,04,24,06,42,4.20
2019,04,24,06,43,4.20
2019,04,24,06,44,4.10
2019,04,24,06,45,4.10
2019,04,24,06,46,4.20
2019,04,24,06,47,4.20
2019,04,24,06,48,4.10
2019,04,24,06,49,4.10
2019,04,24,06,50,4.10
2019,04,24,06,51,4.10
2019,04,24,06,52,4.10
2019,04,24,06,53,4.10
2019,04,24,06,54,4.10
2019,04,24,06,55,4.10
2019,04,24,06,56,4.10
2019,04,24,06,57,4.10
2019,04,24,06,58,4.10
2019,04,24,06,59,4.10
2019,04,24,07,00,4.10
2019,04,24,07,01,4.10
2019,04,24,07,02,4.10
2019,04,24,07,03,4.10
2019,04,24,07,04,4.20
2019,04,24,07,05,4.20
2019,04,24,07,06,4.20
2019,04,24,07,07,4.20
2019,04,24,07,08,4.20
2019,04,24,07,09,4.20
2019,04,24,07,10,4.20
2019,04,24,07,11,4.20
2019,04,24,07,12,4.20
2019,04,24,07,13,4.30
2019,04,24,07,14,4.30
2019,04,24,07,15,4.40
2019,04,24,07,16,4.40
2019,04,24,07,17,4.40
2019,04,24,07,18,4.50
2019,04,24,07,19,4.50
2019,04,24,07,20,4.60
2019,04,24,07,21,4.60
2019,04,24,07,22,4.60
2019,04,24,07,23,4.70
2019,04,24,07,24,4.70
2019,04,24,07,25,4.80
2019,04,24,07,26,4.80
2019,04,24,07,27,4.90
2019,04,24,07,28,5.00
2019,04,24,07,29,5.10
2019,04,24,07,30,5.20
2019,04,24,07,31,5.30
2019,04,24,07,32,5.40
2019,04,24,07,33,5.40
2019,04,24,07,34,5.50
2019,04,24,07,35,5.60
2019,04,24,07,36,5.60
2019,04,24,07,37,5.70
2019,04,24,07,38,5.70
2019,04,24,07,39,5.80
2019,04,24,07,40,5.80
2019,04,24,07,41,5.90
2019,04,24,07,42,5.90
2019,04,24,07,43,6.00
2019,04,24,07,44,6.10
2019,04,24,07,45,6.20
2019,04,24,07,46,6.30
2019,04,24,07,47,6.40
2019,04,24,07,48,6.50
2019,04,24,07,49,6.60
2019,04,24,07,50,6.60
2019,04,24,07,51,6.70
2019,04,24,07,52,6.80
2019,04,24,07,53,6.80
2019,04,24,07,54,6.90
2019,04,24,07,55,6.90
2019,04,24,07,56,7.00
2019,04,24,07,57,7.10
2019,04,24,07,58,7.20
2019,04,24,07,59,7.20
2019,04,24,08,00,7.20
2019,04,24,08,01,7.30
2019,04,24,08,02,7.30
2019,04,24,08,03,7.40
2019,04,24,08,04,7.50
2019,04,24,08,05,7.60
2019,04,24,08,06,7.70
2019,04,24,08,07,7.70
2019,04,24,08,08,7.80
2019,04,24,08,09,7.80
2019,04,24,08,10,7.80
2019,04,24,08,11,7.80
2019,04,24,08,12,7.80
2019,04,24,08,13,7.80
2019,04,24,08,14,7.90
2019,04,24,08,15,7.90
2019,04,24,08,16,7.90
2019,04,24,08,17,8.00
2019,04,24,08,18,8.00
2019,04,24,08,19,8.00
2019,04,24,08,20,8.00
2019,04,24,08,21,8.00
2019,04,24,08,22,8.00
2019,04,24,08,23,8.00
2019,04,24,08,24,8.00
2019,04,24,08,25,8.00
2019,04,24,08,26,8.10
2019,04,24,08,27,8.10
2019,04,24,08,28,8.10
2019,04,24,08,29,8.20
2019,04,24,08,30,8.20
2019,04,24,08,31,8.20
2019,04,24,08,32,8.20
2019,04,24,08,33,8.20
2019,04,24,08,34,8.30
2019,04,24,08,35,8.30
2019,04,24,08,36,8.30
2019,04,24,08,37,8.30
2019,04,24,08,38,8.30
2019,04,24,08,39,8.40
2019,04,24,08,40,8.40
2019,04,24,08,41,8.40
2019,04,24,08,42,8.50
2019,04,24,08,43,8.60
2019,04,24,08,44,8.60
2019,04,24,08,45,8.60
2019,04,24,08,46,8.70
2019,04,24,08,47,8.70
2019,04,24,08,48,8.70
2019,04,24,08,49,8.70
2019,04,24,08,50,8.80
2019,04,24,08,51,8.80
2019,04,24,08,52,8.90
2019,04,24,08,53,8.90
2019,04,24,08,54,8.90
2019,04,24,08,55,9.00
2019,04,24,08,56,9.00
2019,04,24,08,57,9.10
2019,04,24,08,58,9.10
2019,04,24,08,59,9.10
2019,04,24,09,00,9.20
2019,04,24,09,01,9.20
2019,04,24,09,02,9.20
2019,04,24,09,03,9.20
2019,04,24,09,04,9.20
2019,04,24,09,05,9.20
2019,04,24,09,06,9.20
2019,04,24,09,07,9.30
2019,04,24,09,08,9.30
2019,04,24,09,09,9.40
2019,04,24,09,10,9.40
2019,04,24,09,11,9.40
2019,04,24,09,12,9.40
2019,04,24,09,13,9.50
2019,04,24,09,14,9.50
2019,04,24,09,15,9.50
2019,04,24,09,16,9.50
2019,04,24,09,17,9.50
2019,04,24,09,18,9.60
2019,04,24,09,19,9.60
2019,04,24,09,20,9.60
2019,04,24,09,21,9.70
2019,04,24,09,22,9.70
2019,04,24,09,23,9.80
2019,04,24,09,24,9.80
2019,04,24,09,25,9.80
2019,04,24,09,26,9.80
2019,04,24,09,27,9.80
2019,04,24,09,28,9.80
2019,04,24,09,29,9.90
2019,04,24,09,30,9.90
2019,04,24,09,31,10.00
2019,04,24,09,32,9.90
2019,04,24,09,33,10.00
2019,04,24,09,34,10.10
2019,04,24,09,35,10.10
2019,04,24,09,36,10.10
2019,04,24,09,37,10.10
2019,04,24,09,38,10.10
2019,04,24,09,39,10.10
2019,04,24,09,40,10.10
2019,04,24,09,41,10.20
2019,04,24,09,42,10.10
2019,04,24,09,43,10.10
2019,04,24,09,44,10.10
2019,04,24,09,45,10.10
2019,04,24,09,46,10.20
2019,04,24,09,47,10.20
2019,04,24,09,48,10.20
2019,04,24,09,49,10.20
2019,04,24,09,50,10.20
2019,04,24,09,51,10.30
2019,04,24,09,52,10.30
2019,04,24,09,53,10.30
2019,04,24,09,54,10.30
2019,04,24,09,55,10.30
2019,04,24,09,56,10.40
2019,04,24,09,57,10.50
2019,04,24,09,58,10.50
2019,04,24,09,59,10.40
2019,04,24,10,00,10.40
2019,04,24,10,01,10.40
2019,04,24,10,02,10.40
2019,04,24,10,03,10.40
2019,04,24,10,04,10.40
2019,04,24,10,05,10.50
2019,04,24,10,06,10.50
2019,04,24,10,07,10.50
2019,04,24,10,08,10.60
2019,04,24,10,09,10.70
2019,04,24,10,10,10.80
2019,04,24,10,11,10.90
2019,04,24,10,12,10.90
2019,04,24,10,13,10.90
2019,04,24,10,14,10.80
2019,04,24,10,15,10.80
2019,04,24,10,16,10.80
2019,04,24,10,17,10.80
2019,04,24,10,18,10.70
2019,04,24,10,19,10.70
2019,04,24,10,20,10.60
2019,04,24,10,21,10.70
2019,04,24,10,22,10.70
2019,04,24,10,23,10.70
2019,04,24,10,24,10.60
2019,04,24,10,25,10.60
2019,04,24,10,26,10.60
2019,04,24,10,27,10.70
2019,04,24,10,28,10.80
2019,04,24,10,29,10.80
2019,04,24,10,30,10.90
2019,04,24,10,31,10.90
2019,04,24,10,32,11.00
2019,04,24,10,33,11.00
2019,04,24,10,34,11.10
2019,04,24,10,35,11.10
2019,04,24,10,36,11.10
2019,04,24,10,37,11.10
2019,04,24,10,38,11.10
2019,04,24,10,39,11.20
2019,04,24,10,40,11.30
2019,04,24,10,41,11.30
2019,04,24,10,42,11.30
2019,04,24,10,43,11.30
2019,04,24,10,44,11.40
2019,04,24,10,45,11.40
2019,04,24,10,46,11.50
2019,04,24,10,47,11.60
2019,04,24,10,48,11.70
2019,04,24,10,49,11.70
2019,04,24,10,50,11.70
2019,04,24,10,51,11.70
2019,04,24,10,52,11.80
2019,04,24,10,53,11.80
2019,04,24,10,54,11.80
2019,04,24,10,55,11.80
2019,04,24,10,56,11.90
2019,04,24,10,57,11.80
2019,04,24,10,58,11.90
2019,04,24,10,59,11.90
2019,04,24,11,00,11.90
2019,04,24,11,01,12.00
2019,04,24,11,02,12.00
2019,04,24,11,03,12.00
2019,04,24,11,04,12.10
2019,04,24,11,05,12.10
2019,04,24,11,06,12.00
2019,04,24,11,07,11.90
2019,04,24,11,08,11.90
2019,04,24,11,09,11.90
2019,04,24,11,10,11.80
2019,04,24,11,11,11.70
2019,04,24,11,12,11.70
2019,04,24,11,13,11.70
2019,04,24,11,14,11.70
2019,04,24,11,15,11.80
2019,04,24,11,16,11.80
2019,04,24,11,17,11.90
2019,04,24,11,18,11.90
2019,04,24,11,19,11.90
2019,04,24,11,20,11.90
2019,04,24,11,21,12.00
2019,04,24,11,22,12.00
2019,04,24,11,23,12.00
2019,04,24,11,24,12.10
2019,04,24,11,25,12.20
2019,04,24,11,26,12.40
2019,04,24,11,27,12.60
2019,04,24,11,28,12.80
2019,04,24,11,29,12.80
2019,04,24,11,30,12.90
2019,04,24,11,31,13.00
2019,04,24,11,32,13.10
2019,04,24,11,33,13.20
2019,04,24,11,34,13.20
2019,04,24,11,35,13.10
2019,04,24,11,36,13.00
2019,04,24,11,37,13.00
2019,04,24,11,38,13.00
2019,04,24,11,39,13.00
2019,04,24,11,40,13.00
2019,04,24,11,41,13.00
2019,04,24,11,42,13.10
2019,04,24,11,43,13.10
2019,04,24,11,44,13.10
2019,04,24,11,45,13.20
2019,04,24,11,46,13.20
2019,04,24,11,47,13.10
2019,04,24,11,48,13.00
2019,04,24,11,49,12.80
2019,04,24,11,50,12.70
2019,04,24,11,51,12.60
2019,04,24,11,52,12.60
2019,04,24,11,53,12.70
2019,04,24,11,54,12.70
2019,04,24,11,55,12.80
2019,04,24,11,56,12.90
2019,04,24,11,57,13.00
2019,04,24,11,58,13.10
2019,04,24,11,59,13.20
2019,04,24,12,00,13.20
2019,04,24,12,01,13.20
2019,04,24,12,02,13.20
2019,04,24,12,03,13.20
2019,04,24,12,04,13.20
2019,04,24,12,05,13.20
2019,04,24,12,06,13.20
2019,04,24,12,07,13.30
2019,04,24,12,08,13.20
2019,04,24,12,09,13.10
2019,04,24,12,10,13.00
2019,04,24,12,11,13.10
2019,04,24,12,12,13.10
2019,04,24,12,13,13.10
2019,04,24,12,14,13.10
2019,04,24,12,15,13.10
2019,04,24,12,16,13.10
2019,04,24,12,17,13.10
2019,04,24,12,18,13.10
2019,04,24,12,19,13.10
2019,04,24,12,20,13.10
2019,04,24,12,21,13.20
2019,04,24,12,22,13.20
2019,04,24,12,23,13.40
2019,04,24,12,24,13.50
2019,04,24,12,25,13.60
2019,04,24,12,26,13.70
2019,04,24,12,27,13.80
2019,04,24,12,28,13.90
2019,04,24,12,29,14.00
2019,04,24,12,30,13.90
2019,04,24,12,31,13.70
2019,04,24,12,32,13.50
2019,04,24,12,33,13.40
2019,04,24,12,34,13.30
2019,04,24,12,35,13.30
2019,04,24,12,36,13.40
2019,04,24,12,37,13.40
2019,04,24,12,38,13.50
2019,04,24,12,39,13.60
2019,04,24,12,40,13.70
2019,04,24,12,41,13.70
2019,04,24,12,42,13.70
2019,04,24,12,43,13.80
2019,04,24,12,44,13.80
2019,04,24,12,45,13.80
2019,04,24,12,46,13.80
2019,04,24,12,47,13.80
2019,04,24,12,48,13.80
2019,04,24,12,49,13.80
2019,04,24,12,50,13.80
2019,04,24,12,51,13.80
2019,04,24,12,52,13.80
2019,04,24,12,53,13.80
2019,04,24,12,54,13.80
2019,04,24,12,55,13.80
2019,04,24,12,56,13.70
2019,04,24,12,57,13.70
2019,04,24,12,58,13.80
2019,04,24,12,59,13.90
2019,04,24,13,00,14.00
2019,04,24,13,01,14.10
2019,04,24,13,02,14.30
2019,04,24,13,03,14.40
2019,04,24,13,04,14.50
2019,04,24,13,05,14.40
2019,04,24,13,06,14.10
2019,04,24,13,07,14.10
2019,04,24,13,08,14.10
2019,04,24,13,09,14.00
2019,04,24,13,10,13.90
2019,04,24,13,11,13.90
2019,04,24,13,12,14.00
2019,04,24,13,13,14.10
2019,04,24,13,14,14.20
2019,04,24,13,15,14.30
2019,04,24,13,16,14.30
2019,04,24,13,17,14.40
2019,04,24,13,18,14.40
2019,04,24,13,19,14.30
2019,04,24,13,20,14.40
2019,04,24,13,21,14.40
2019,04,24,13,22,14.50
2019,04,24,13,23,14.60
2019,04,24,13,24,14.60
2019,04,24,13,25,14.70
2019,04,24,13,26,14.70
2019,04,24,13,27,14.70
2019,04,24,13,28,14.60
2019,04,24,13,29,14.60
2019,04,24,13,30,14.60
2019,04,24,13,31,14.70
2019,04,24,13,32,14.80
2019,04,24,13,33,14.80
2019,04,24,13,34,14.80
2019,04,24,13,35,14.80
2019,04,24,13,36,14.70
2019,04,24,13,37,14.70
2019,04,24,13,38,14.70
2019,04,24,13,39,14.70
2019,04,24,13,40,14.80
2019,04,24,13,41,14.80
2019,04,24,13,42,14.80
2019,04,24,13,43,14.80
2019,04,24,13,44,14.80
2019,04,24,13,45,14.90
2019,04,24,13,46,14.80
2019,04,24,13,47,14.80
2019,04,24,13,48,14.80
2019,04,24,13,49,14.90
2019,04,24,13,50,15.00
2019,04,24,13,51,15.10
2019,04,24,13,52,15.10
2019,04,24,13,53,15.20
2019,04,24,13,54,15.20
2019,04,24,13,55,15.30
2019,04,24,13,56,15.30
2019,04,24,13,57,15.30
2019,04,24,13,58,15.30
2019,04,24,13,59,15.30
2019,04,24,14,00,15.30
2019,04,24,14,01,15.20
2019,04,24,14,02,15.20
2019,04,24,14,03,15.10
2019,04,24,14,04,15.10
2019,04,24,14,05,15.00
2019,04,24,14,06,15.00
2019,04,24,14,07,14.90
2019,04,24,14,08,14.90
2019,04,24,14,09,14.90
2019,04,24,14,10,14.80
2019,04,24,14,11,14.70
2019,04,24,14,12,14.70
2019,04,24,14,13,14.70
2019,04,24,14,14,14.80
2019,04,24,14,15,14.90
2019,04,24,14,16,15.00
2019,04,24,14,17,15.10
2019,04,24,14,18,15.10
2019,04,24,14,19,15.30
2019,04,24,14,20,15.40
2019,04,24,14,21,15.50
2019,04,24,14,22,15.60
2019,04,24,14,23,15.70
2019,04,24,14,24,15.70
2019,04,24,14,25,15.70
2019,04,24,14,26,15.60
2019,04,24,14,27,15.60
2019,04,24,14,28,15.60
2019,04,24,14,29,15.70
2019,04,24,14,30,15.70
2019,04,24,14,31,15.80
2019,04,24,14,32,15.90
2019,04,24,14,33,15.90
2019,04,24,14,34,16.00
2019,04,24,14,35,16.00
2019,04,24,14,36,16.00
2019,04,24,14,37,15.90
2019,04,24,14,38,15.90
2019,04,24,14,39,15.90
2019,04,24,14,40,15.90
2019,04,24,14,41,15.80
2019,04,24,14,42,15.90
2019,04,24,14,43,15.90
2019,04,24,14,44,15.80
2019,04,24,14,45,15.80
2019,04,24,14,46,15.90
2019,04,24,14,47,15.90
2019,04,24,14,48,15.90
2019,04,24,14,49,15.90
2019,04,24,14,50,15.80
2019,04,24,14,51,15.70
2019,04,24,14,52,15.70
2019,04,24,14,53,15.70
2019,04,24,14,54,15.70
2019,04,24,14,55,15.70
2019,04,24,14,56,15.70
2019,04,24,14,57,15.80
2019,04,24,14,58,15.90
2019,04,24,14,59,16.00
2019,04,24,15,00,16.00
2019,04,24,15,01,16.10
2019,04,24,15,02,16.10
2019,04,24,15,03,16.10
2019,04,24,15,04,16.10
2019,04,24,15,05,16.10
2019,04,24,15,06,16.20
2019,04,24,15,07,16.20
2019,04,24,15,08,16.20
2019,04,24,15,09,16.20
2019,04,24,15,10,16.20
2019,04,24,15,11,16.20
2019,04,24,15,12,16.30
2019,04,24,15,13,16.30
2019,04,24,15,14,16.40
2019,04,24,15,15,16.50
2019,04,24,15,16,16.60
2019,04,24,15,17,16.60
2019,04,24,15,18,16.70
2019,04,24,15,19,16.70
2019,04,24,15,20,16.60
2019,04,24,15,21,16.60
2019,04,24,15,22,16.60
2019,04,24,15,23,16.60
2019,04,24,15,24,16.60
2019,04,24,15,25,16.70
2019,04,24,15,26,16.70
2019,04,24,15,27,16.80
2019,04,24,15,28,16.80
2019,04,24,15,29,16.90
2019,04,24,15,30,17.00
2019,04,24,15,31,16.90
2019,04,24,15,32,16.70
2019,04,24,15,33,16.50
2019,04,24,15,34,16.40
2019,04,24,15,35,16.20
2019,04,24,15,36,16.20
2019,04,24,15,37,16.20
2019,04,24,15,38,16.10
2019,04,24,15,39,16.00
2019,04,24,15,40,15.90
2019,04,24,15,41,15.90
2019,04,24,15,42,15.90
2019,04,24,15,43,15.90
2019,04,24,15,44,15.80
2019,04,24,15,45,15.80
2019,04,24,15,46,15.80
2019,04,24,15,47,15.80
2019,04,24,15,48,15.80
2019,04,24,15,49,15.90
2019,04,24,15,50,15.90
2019,04,24,15,51,15.90
2019,04,24,15,52,15.70
2019,04,24,15,53,15.50
2019,04,24,15,54,15.50
2019,04,24,15,55,15.50
2019,04,24,15,56,15.60
2019,04,24,15,57,15.70
2019,04,24,15,58,15.80
2019,04,24,15,59,15.90
2019,04,24,16,00,16.10
2019,04,24,16,01,16.20
2019,04,24,16,02,16.30
2019,04,24,16,03,16.30
2019,04,24,16,04,16.40
2019,04,24,16,05,16.40
2019,04,24,16,06,16.40
2019,04,24,16,07,16.30
2019,04,24,16,08,16.30
2019,04,24,16,09,16.30
2019,04,24,16,10,16.20
2019,04,24,16,11,16.10
2019,04,24,16,12,16.10
2019,04,24,16,13,16.00
2019,04,24,16,14,16.00
2019,04,24,16,15,16.00
2019,04,24,16,16,16.10
2019,04,24,16,17,16.10
2019,04,24,16,18,16.20
2019,04,24,16,19,16.20
2019,04,24,16,20,16.30
2019,04,24,16,21,16.30
2019,04,24,16,22,16.40
2019,04,24,16,23,16.50
2019,04,24,16,24,16.50
2019,04,24,16,25,16.50
2019,04,24,16,26,16.50
2019,04,24,16,27,16.50
2019,04,24,16,28,16.50
2019,04,24,16,29,16.60
2019,04,24,16,30,16.60
2019,04,24,16,31,16.60
2019,04,24,16,32,16.70
2019,04,24,16,33,16.80
2019,04,24,16,34,16.80
2019,04,24,16,35,16.80
2019,04,24,16,36,16.80
2019,04,24,16,37,16.70
2019,04,24,16,38,16.60
2019,04,24,16,39,16.50
2019,04,24,16,40,16.40
2019,04,24,16,41,16.30
2019,04,24,16,42,16.30
2019,04,24,16,43,16.30
2019,04,24,16,44,16.20
2019,04,24,16,45,16.20
2019,04,24,16,46,16.20
2019,04,24,16,47,16.20
2019,04,24,16,48,16.20
2019,04,24,16,49,16.30
2019,04,24,16,50,16.30
2019,04,24,16,51,16.30
2019,04,24,16,52,16.40
2019,04,24,16,53,16.50
2019,04,24,16,54,16.40
2019,04,24,16,55,16.40
2019,04,24,16,56,16.40
2019,04,24,16,57,16.30
2019,04,24,16,58,16.30
2019,04,24,16,59,16.30
2019,04,24,17,00,16.20
2019,04,24,17,01,16.20
2019,04,24,17,02,16.20
2019,04,24,17,03,16.20
2019,04,24,17,04,16.20
2019,04,24,17,05,16.20
2019,04,24,17,06,16.20
2019,04,24,17,07,16.20
2019,04,24,17,08,16.20
2019,04,24,17,09,16.20
2019,04,24,17,10,16.10
2019,04,24,17,11,16.10
2019,04,24,17,12,16.10
2019,04,24,17,13,16.20
2019,04,24,17,14,16.30
2019,04,24,17,15,16.30
2019,04,24,17,16,16.40
2019,04,24,17,17,16.50
2019,04,24,17,18,16.60
2019,04,24,17,19,16.60
2019,04,24,17,20,16.60
2019,04,24,17,21,16.60
2019,04,24,17,22,16.60
2019,04,24,17,23,16.60
2019,04,24,17,24,16.50
2019,04,24,17,25,16.60
2019,04,24,17,26,16.60
2019,04,24,17,27,16.70
2019,04,24,17,28,16.70
2019,04,24,17,29,16.70
2019,04,24,17,30,16.70
2019,04,24,17,31,16.60
2019,04,24,17,32,16.50
2019,04,24,17,33,16.40
2019,04,24,17,34,16.40
2019,04,24,17,35,16.40
2019,04,24,17,36,16.40
2019,04,24,17,37,16.40
2019,04,24,17,38,16.50
2019,04,24,17,39,16.50
2019,04,24,17,40,16.50
2019,04,24,17,41,16.50
2019,04,24,17,42,16.40
2019,04,24,17,43,16.20
2019,04,24,17,44,16.00